Regional Weather Roundup
Issued by NWS

Home | Current Version | Previous Version | Text Only | Print | Product List | Glossary Off
Versions: 1 2 3 4 5 6 7 8 9 10 11 12 13 14 15 16 17 18 19 20 21 22 23 24 25 26 27 28 29 30 31 32 33 34 35 36 37 38 39 40 41 42 43 44 45 46 47 48 49 50

849
ASUS43 KOAX 230702
RWRNE

WEATHER ROUNDUP FOR NEBRASKA
NATIONAL WEATHER SERVICE OMAHA NE
200 AM CDT WED AUG 23 2017

NOTES: SATELLITE DATA IS BEING USED TO AUGMENT CLOUD COVER ABOVE
       12000 FEET.
       "FAIR" INDICATES FEW OR NO CLOUDS BELOW 12,000 FEET WITH NO
       SIGNIFICANT WEATHER AND/OR OBSTRUCTIONS TO VISIBILITY.


NEZ001>004-019>022-054>056-230800-
NEBRASKA PANHANDLE

CITY           SKY/WX    TMP DP  RH WIND       PRES   REMARKS
SCOTTSBLUFF    CLEAR     61  52  72 E9        30.15S
ALLIANCE       CLEAR     61  51  70 SE14      30.15F
CHADRON        CLEAR     71  51  49 S24G33    30.07S
GORDON         FAIR      65  49  55 S10       30.13F
KIMBALL        CLEAR     62  54  74 SE13      30.19S
SIDNEY         CLEAR     64  54  69 S16       30.20S
$$

NEZ057>060-069>072-079>082-230800-
SOUTHWEST NEBRASKA

CITY           SKY/WX    TMP DP  RH WIND       PRES   REMARKS
NORTH PLATTE   CLEAR     57  54  89 E5        30.19F
IMPERIAL       CLEAR     58  50  75 S8        30.21S
LEXINGTON      CLEAR     58  53  83 S6        30.20F
MCCOOK         CLEAR     60  53  77 SE8       30.20F
OGALLALA       CLEAR     61  53  75 CALM      30.20S
$$

NEZ005>010-023>029-035>040-094-230800-
NORTH CENTRAL NEBRASKA

CITY           SKY/WX    TMP DP  RH WIND       PRES   REMARKS
VALENTINE      CLEAR     61  50  67 S6        30.14S
AINSWORTH      CLEAR     59  54  83 S9        30.15F
BROKEN BOW     PTCLDY    60  53  77 SE3       30.18F
O`NEILL        CLEAR     58  54  84 S6        30.17S
ORD            CLEAR     58  53  84 CALM      30.17S
THEDFORD       CLEAR     64  54  69 S10       30.17F
$$

NEZ041-046>049-061>064-073>077-083>087-230800-
SOUTH CENTRAL NEBRASKA

CITY           SKY/WX    TMP DP  RH WIND       PRES   REMARKS
GRAND ISLAND   CLEAR     59  55  87 S7        30.20S
AURORA         CLEAR     56  54  92 SW5       30.19S
HASTINGS       CLEAR     60  53  77 SW5       30.21F
HEBRON         CLEAR     55  53  94 CALM      30.20S
HOLDREGE       PTCLDY    60  52  75 S6        30.21F
KEARNEY        CLEAR     59  54  83 SW8       30.21S
$$

NEZ011>018-030>034-042>045-230800-
NORTHEAST NEBRASKA

CITY           SKY/WX    TMP DP  RH WIND       PRES   REMARKS
NORFOLK        CLEAR     55  53  93 CALM      30.16F
ALBION         CLEAR     56  55  96 CALM      30.18F
BLAIR          CLEAR     61  51  70 CALM      30.17F
COLUMBUS       CLEAR     54  54 100 CALM      30.18F
FREMONT        CLEAR     58  57  96 CALM      30.17F
TEKAMAH        CLEAR     54  52  93 S3        30.16S
WAYNE          CLEAR     54  51  91 CALM      30.17S
$$

NEZ050>053-065>068-078-088>093-230800-
SOUTHEAST NEBRASKA

CITY           SKY/WX    TMP DP  RH WIND       PRES   REMARKS
LINCOLN        CLEAR     56  53  90 CALM      30.19S
OMAHA EPPLEY   CLEAR     60  54  80 CALM      30.17F
BEATRICE       CLEAR     56  54  92 CALM      30.18F
FALLS CITY     CLEAR     56  54  93 CALM      30.17S
NEBRASKA CITY  CLEAR     61  53  75 N3        30.18S
$$

NEZ044-045-051>053-067-230800-
OMAHA AREA

CITY           SKY/WX    TMP DP  RH WIND       PRES   REMARKS
OMAHA EPPLEY   CLEAR     60  54  80 CALM      30.17F
BLAIR          CLEAR     61  51  70 CALM      30.17F
FREMONT        CLEAR     58  57  96 CALM      30.17F
MILLARD        CLEAR     58  57  95 CALM      30.17F
OFFUTT AFB     CLEAR     54  53  96 CALM      30.16F
WAHOO          FAIR      54  53  97 CALM      30.17F
$$




USA.gov is the U.S. government's official web portal to all federal, state and local government web resources and services.